Погода в Багаряке

Россия / Челябинская область     56°12′16″N   61°30′16″E
темп.,
°C
ветер,
м/с
пор.,
м/с
влажн.,
%
обл.,
%
осадки,
мм/ч
давл.,
гПа
погр.,
м
8 марта, пн
пн823:00−14зсз389689 0.1 1008210
02:00−18з369328 0.0 1008107
05:00−20з339414 0.0 101052
08:00−20юз23957 0.0 100952
11:00−13ю489054 0.0 1007318
14:00−11ю51093100 0.1 1005634
17:00−7ю51184100 0.2 1003732
20:00−8ююз4119195 0.0 1002322
9 марта, вт
вт923:00−7юз5138893 0.1 1003503
02:00−9юз412842 0.0 1004417
05:00−10ююз49909 0.0 1004215
08:00−10ю2795100 0.0 1002206
11:00−3юз71374100 0.4 10021819
14:00−4ссз7108591 0.3 10041086
17:00−4з488193 0.4 1008881
20:00−10зюз358644 0.0 101076
10 марта, ср
ср1023:00−12зюз239061 0.0 101235
02:00−14сз1192100 0.0 101120
05:00−13в2292100 0.0 100927
08:00−12в3794100 0.1 1007251
11:00−9в4895100 0.6 1004391
14:00−7в5995100 1.3 1002531
17:00−6в61095100 3.3 1000752
20:00−7всв61195100 1.9 1000753
11 марта, чт
чт1123:00−10ссв71294100 3.6 1001657
02:00−14ссв71394100 0.9 1002537
05:00−17с61295100 1.7 1004504
08:00−18с51095100 0.6 1007460
11:00−17ссз5993100 0.8 1008436
14:00−14ссз478185 0.0 1009603
17:00−13ссз369061 0.1 1010734
20:00−16ссз2596100 0.4 1012252
12 марта, пт
пт1223:00−18сз1397100 0.8 101485
02:00−21ссз129998 0.2 101525
05:00−24ссз229979 0.2 101620
08:00−22зсз1197100 0.0 101820
11:00−16юз2392100 0.2 1019302
14:00−10зсз2687100 0.3 10191010
17:00−9зсз4885100 0.6 10201157
20:00−13з31088100 0.1 1021316